Wind_Speed
19 20 21 20 20 21 20 20 19 18 18 18 19 18 17 16 15 14 13 12 11 11 9 9 9 10 11 11 11 12 13 13 13 14 15 15 15 16 16 17 16 16 16
25 21 23 20 20 21 20 20 19 19 18 18 17 17 17 16 15 14 13 13 12 11 10 9 10 11 12 12 13 13 13 13 13 13 14 14 14 14 16 15 16 15 16
26 23 23 20 21 20 21 20 19 19 18 17 17 16 16 16 16 15 14 13 12 12 11 10 10 11 12 11 12 13 13 13 13 13 13 15 14 14 15 15 15 15 15
27 24 23 21 22 20 20 19 18 18 16 17 15 17 16 15 16 14 12 12 11 12 11 11 11 12 12 13 13 14 13 13 13 14 14 14 14 13 14 15 14 14 14
28 25 23 21 21 20 20 18 19 17 17 17 15 15 15 15 15 13 12 10 11 12 11 11 11 11 12 12 12 11 12 12 12 13 14 15 15 14 13 13 13 13 14
27 26 23 21 19 19 17 19 16 17 16 15 15 15 15 15 14 13 11 10 11 11 11 10 11 11 11 10 10 10 10 10 12 14 14 15 16 13 13 12 12 12 13
28 25 23 20 20 18 16 17 16 16 15 15 16 16 15 15 14 13 13 12 12 12 11 11 11 11 10 10 12 11 13 12 11 14 15 14 13 13 12 12 12 12 13
29 24 22 19 18 17 16 16 16 15 15 15 15 16 16 14 14 12 11 12 11 13 12 12 13 11 11 9 10 9 12 11 12 13 13 14 12 12 12 12 12 12 12
27 25 22 20 17 16 15 15 15 14 14 15 15 15 15 13 13 11 10 11 12 12 12 13 13 11 10 9 8 8 9 10 13 13 12 12 11 11 11 11 11 11 10
26 26 22 20 18 16 15 14 14 14 13 13 14 13 13 11 10 11 10 10 10 13 13 13 11 10 7 8 8 11 9 11 11 12 13 13 11 10 9 10 11 10 10
26 25 22 21 19 18 16 15 14 13 13 12 12 12 13 12 11 10 9 7 10 11 10 10 12 9 7 9 8 8 8 9 9 10 12 11 10 9 9 9 9 9 9
25 26 23 21 20 19 17 16 15 14 13 12 12 11 11 10 8 7 8 6 6 8 10 10 9 10 8 8 6 6 4 7 7 9 12 10 9 9 8 8 7 8 7
25 24 25 22 21 20 18 16 16 15 13 12 12 11 10 8 6 6 7 6 3 5 7 8 8 7 8 7 6 3 4 6 6 8 11 8 8 8 8 7 7 7 7
25 24 28 24 22 20 17 17 16 16 14 12 10 9 10 8 6 5 5 4 4 6 6 7 7 6 7 8 7 5 3 5 7 8 10 9 7 8 8 7 6 6 6
24 27 30 26 24 21 18 17 17 15 14 12 11 11 9 8 6 6 6 5 4 4 6 7 6 4 5 7 9 8 6 4 7 8 9 10 8 6 7 7 7 5 5
28 31 31 28 25 22 20 18 17 15 13 11 10 9 11 9 7 6 5 4 4 4 5 5 5 4 4 4 7 9 5 6 5 7 8 8 7 6 5 6 5 5 4
31 32 32 30 26 24 21 19 18 16 14 12 10 9 9 9 8 5 4 4 6 6 5 6 8 6 4 6 6 7 6 6 5 7 8 7 7 8 6 5 4 4 4
30 32 32 31 28 25 23 21 19 17 14 12 11 11 9 9 9 7 6 5 6 6 6 5 7 6 6 4 5 7 6 5 5 6 6 6 7 5 6 6 5 5 4
35 33 33 32 30 27 25 22 19 16 15 14 14 14 12 11 10 8 7 7 5 4 5 6 5 6 7 5 7 7 5 5 5 5 4 4 5 4 5 4 3 4 5
35 34 34 34 31 29 26 22 19 16 16 16 14 16 16 14 12 9 7 9 7 4 2 2 3 4 6 6 8 7 5 4 4 3 3 2 2 2 3 4 3 4 5
33 35 35 36 34 30 30 26 22 20 16 13 15 14 17 15 14 12 9 8 8 5 4 5 2 3 7 8 9 6 4 4 7 6 5 4 2 2 2 3 3 3 3
33 37 38 38 37 33 33 29 25 24 20 14 13 15 18 17 15 14 11 10 9 7 5 6 3 2 5 8 4 4 2 1 1 9 7 7 5 5 5 4 3 4 4
32 36 39 39 39 36 34 30 23 22 20 18 15 15 18 18 16 16 14 10 10 8 7 6 6 6 5 6 8 3 2 2 1 3 8 8 9 9 8 6 5 3 3
32 35 39 41 40 39 37 34 31 27 23 26 23 17 16 18 19 17 16 12 10 9 8 7 6 6 6 9 8 4 3 3 2 0 4 8 10 11 11 10 9 6 4
29 33 38 40 41 41 40 38 36 33 27 25 25 21 18 17 18 19 17 13 11 11 10 8 8 8 9 11 8 6 4 3 3 2 1 4 10 15 15 14 12 10 8
32 33 36 40 42 42 42 42 41 37 34 28 24 26 24 21 19 19 19 17 14 13 11 9 9 8 10 9 11 7 6 4 6 3 2 5 7 6 16 17 16 15 14
Wind_Direction
144 136 130 125 120 121 120 120 120 121 122 130 136 140 142 141 139 135 138 134 124 109 97 87 98 103 106 106 109 106 105 109 106 105 108 108 103 100 101 101 100 100 98
146 141 136 130 126 125 125 121 122 122 126 128 131 135 136 138 138 136 133 130 124 116 101 96 99 103 102 107 108 112 113 112 108 110 113 108 102 105 106 103 101 99 98
146 144 139 137 131 128 127 121 122 122 125 127 128 132 137 142 136 136 135 128 124 113 108 102 103 103 104 106 106 108 109 110 108 111 121 112 109 108 105 102 101 101 97
146 143 145 138 134 130 127 123 126 122 122 123 124 133 135 133 128 131 126 128 110 109 107 100 96 99 105 112 112 112 104 107 112 114 121 119 112 110 106 105 101 100 96
146 148 146 141 136 132 131 127 126 125 123 120 124 121 123 124 124 126 127 123 110 108 108 106 103 106 110 115 116 121 119 116 120 117 118 118 114 107 105 101 101 101 98
148 148 147 142 137 135 130 125 125 123 118 123 119 119 120 118 117 119 121 113 104 98 99 106 112 120 119 114 108 121 134 129 119 118 116 113 106 111 107 105 101 106 102
148 149 147 146 139 138 131 128 126 125 120 123 118 116 112 114 114 118 112 108 103 103 105 107 116 119 112 108 105 117 124 132 121 121 118 116 119 112 110 110 110 108 105
150 153 149 152 141 140 137 133 132 130 122 120 120 118 118 120 116 113 112 110 106 101 102 107 122 121 115 118 117 110 121 126 128 127 123 118 114 110 115 111 111 109 109
153 153 156 152 145 141 142 138 137 134 131 128 123 122 119 116 115 115 119 112 107 101 97 104 120 123 115 108 106 123 124 125 130 129 127 121 115 118 117 118 114 114 117
160 159 162 157 155 146 146 143 141 138 135 132 131 124 120 118 118 116 111 107 102 90 91 98 109 119 108 107 111 117 124 130 132 132 124 118 122 112 112 121 125 123 120
165 166 169 165 162 154 152 150 147 142 141 139 137 140 134 132 130 125 115 103 96 95 100 102 109 121 118 109 112 117 109 126 124 127 122 118 120 127 134 129 122 127 127
171 173 174 172 168 163 159 158 155 148 154 151 145 143 138 137 137 135 121 105 89 97 105 115 120 126 135 128 127 129 134 138 131 128 129 130 131 131 132 130 133 126 120
174 176 180 177 176 171 168 167 162 160 159 152 148 147 147 151 154 150 139 123 121 97 101 103 116 147 160 168 175 164 160 165 150 141 137 143 145 138 132 143 130 129 128
176 178 182 182 182 178 175 175 170 169 169 172 176 175 168 168 174 170 159 150 122 101 104 120 112 114 165 187 199 184 174 171 169 158 154 158 152 151 150 145 147 147 152
178 184 185 185 186 182 182 181 181 178 179 175 173 171 172 180 184 178 173 184 141 113 114 121 119 115 135 180 209 206 217 152 166 172 170 168 168 160 164 169 174 160 159
185 187 187 189 190 187 187 187 185 179 175 173 174 178 194 192 190 196 165 168 152 159 110 125 145 145 118 131 184 204 202 183 161 167 170 172 173 175 181 180 183 179 174
193 190 192 192 193 194 192 193 193 189 192 193 193 194 178 180 189 182 168 148 140 131 126 116 128 145 119 143 157 170 171 167 150 165 172 181 191 191 198 201 207 205 199
191 197 196 195 196 197 197 196 196 195 203 212 215 218 201 197 192 197 185 162 147 128 112 110 116 116 113 150 140 147 158 162 157 167 171 186 206 197 219 226 217 231 223
194 199 200 198 199 199 200 199 199 206 219 229 238 235 225 215 207 192 193 183 168 132 150 142 128 154 159 143 160 154 165 171 174 178 172 166 200 205 218 223 233 243 251
198 201 203 201 201 201 201 201 204 215 235 244 232 224 225 220 210 196 185 187 176 168 145 128 162 163 155 135 150 177 170 181 187 178 204 188 166 175 192 213 225 234 247
199 202 203 204 203 202 203 205 209 216 213 220 218 217 212 217 213 210 207 192 179 184 180 185 122 106 134 130 125 109 143 206 227 226 227 224 222 240 234 245 239 249 244
196 201 204 206 205 204 207 207 208 207 206 210 211 212 209 215 214 215 214 197 193 204 186 184 185 172 124 165 155 112 42 115 198 222 226 231 237 261 269 260 255 269 267
197 198 202 207 208 207 209 210 209 209 215 209 207 204 203 211 218 223 225 218 209 199 210 188 194 199 169 173 185 158 114 224 312 213 228 232 243 249 264 275 276 276 282
198 201 206 209 209 209 209 212 212 207 207 217 210 207 205 214 222 228 229 228 224 225 210 197 202 207 209 185 166 192 188 158 155 319 233 238 241 244 252 257 263 262 258
198 199 206 209 212 213 213 214 216 216 221 223 221 214 212 215 222 227 229 234 232 224 224 220 217 219 218 200 183 175 181 179 148 130 246 251 244 244 246 252 254 255 251
204 203 201 207 210 215 217 218 219 220 222 223 221 221 220 221 223 226 228 232 236 233 228 233 228 229 218 215 220 215 213 191 206 166 188 250 241 265 243 249 253 253 250
Height
811 812 814 815 816 817 819 821 822 822 824 825 827 829 830 831 833 835 836 837 838 838 839 839 840 840 840 840 841 842 843 844 844 844 845 846 848 848 849 850 852 853 853
810 814 816 818 819 820 821 823 824 826 827 828 829 831 833 834 836 837 838 839 840 840 841 841 842 842 842 843 843 844 845 846 846 846 847 848 849 851 852 853 854 854 855
811 815 818 820 821 823 824 825 826 827 829 831 832 834 836 837 838 840 840 841 842 843 843 844 844 844 844 844 845 846 847 847 847 848 849 850 852 853 854 855 856 857 858
812 816 819 821 823 824 827 828 829 831 832 834 835 837 838 839 841 841 842 842 844 845 845 846 846 846 847 847 848 848 849 850 850 850 851 852 854 856 857 858 859 860 861
814 818 821 824 825 827 829 831 832 833 835 836 837 839 840 841 842 843 844 845 845 846 846 847 848 848 849 849 850 850 851 852 853 853 854 855 857 859 860 861 862 862 863
816 820 823 826 828 829 831 832 835 836 837 838 839 840 842 843 845 846 846 848 848 848 849 849 850 851 851 852 852 852 853 854 855 855 857 858 860 862 863 864 865 865 866
817 821 825 827 830 831 833 835 837 839 839 840 841 843 845 847 848 848 848 849 850 850 850 851 852 853 853 853 855 854 855 856 857 858 859 861 862 864 865 867 867 868 869
817 822 826 829 831 833 836 837 839 840 842 843 845 845 847 848 849 850 851 851 851 851 852 853 854 855 856 856 856 857 858 858 860 861 863 864 866 867 868 868 870 870 871
820 824 827 830 833 835 837 838 840 842 844 845 847 848 849 850 851 853 853 853 854 854 854 854 856 857 858 859 859 859 860 861 862 864 865 867 869 869 870 871 871 873 873
822 825 828 831 834 836 839 840 842 844 846 847 848 850 851 852 854 855 855 856 856 856 856 857 858 860 860 861 862 863 863 863 864 866 867 869 871 872 872 872 872 873 875
823 825 829 831 834 837 839 841 844 846 848 849 850 851 853 854 855 856 858 857 859 859 859 859 860 861 863 864 864 864 865 866 867 869 870 872 873 872 873 874 875 876 876
822 825 829 832 835 837 840 842 845 847 849 850 851 853 854 856 857 858 859 859 860 861 861 861 861 863 864 866 866 867 867 867 869 871 872 873 874 875 875 876 877 878 880
820 825 828 831 834 837 840 842 845 847 849 850 852 854 856 857 859 860 861 861 862 862 862 862 863 864 865 866 867 868 868 869 871 872 874 875 875 876 877 878 879 880 880
819 823 827 831 834 837 840 843 845 848 849 851 853 854 856 858 859 861 862 863 863 863 863 863 864 864 866 867 868 869 869 871 872 874 875 875 877 877 879 880 880 880 881
817 821 825 829 833 837 840 843 845 848 850 852 853 855 856 858 860 861 862 863 864 864 864 865 865 866 867 867 868 870 871 872 874 875 876 877 879 879 880 881 881 882 882
816 820 824 828 832 836 839 842 845 848 850 852 854 855 856 858 860 861 863 863 864 865 866 865 867 867 867 867 868 870 872 873 875 877 878 878 879 881 880 882 883 883 884
814 819 823 826 831 834 838 842 844 848 850 852 854 856 856 858 860 862 863 864 865 866 866 867 867 868 868 869 870 872 873 874 876 877 879 879 880 881 881 883 883 883 884
813 817 822 826 829 833 836 840 844 847 850 852 854 856 857 858 861 862 864 864 865 866 868 868 869 869 870 871 873 874 875 876 877 878 879 879 880 882 882 882 883 883 884
808 815 820 824 827 831 835 839 843 847 849 851 854 856 857 859 861 862 863 864 865 867 869 870 870 871 872 873 874 875 877 878 879 880 880 880 880 882 882 883 883 884 884
806 811 817 822 825 830 834 839 843 845 847 849 851 854 856 859 861 862 863 865 865 866 868 869 870 871 873 873 875 877 878 880 880 881 880 881 881 882 882 882 883 883 883
804 808 812 818 822 827 831 836 840 843 845 847 849 853 855 858 860 861 863 864 865 866 868 869 870 871 872 873 875 877 879 880 880 881 881 881 882 883 883 883 884 883 883
799 803 808 813 818 823 828 832 837 841 844 846 848 851 854 857 859 861 862 864 866 867 869 869 870 871 872 873 874 877 880 881 879 880 881 881 882 883 883 883 883 884 883
794 798 803 808 814 819 825 830 835 840 844 845 847 849 852 855 858 860 862 864 865 866 868 869 870 872 872 874 874 876 880 881 880 879 880 881 882 883 883 883 883 883 883
787 794 799 804 809 815 821 826 830 834 838 841 844 847 850 853 855 858 860 862 864 865 867 868 869 871 872 873 874 875 875 876 879 880 879 880 880 881 882 882 882 882 882
785 788 795 800 805 810 815 821 826 831 835 838 842 845 848 851 853 856 859 861 862 864 866 867 868 869 871 872 872 874 876 877 877 878 880 878 879 879 880 880 880 881 881
779 783 789 794 799 804 809 815 820 824 829 834 837 841 844 847 850 853 856 859 861 863 865 866 867 868 869 870 872 873 874 875 876 877 878 878 877 877 877 878 878 879 880